VQBOS LICG-LICD

Flight info

Callsign VQBOS
Flight time 0h 23m
Altitude 9000
Route N0460A090 DOBIX M740 LPD
Aircraft B738/M-Q/L

Departure

Time 2026-05-05 11:16
Airport Pantelleria Airport (LICG)

Arrival

Time 2026-05-05 11:40
Airport Lampedusa Airport (LICD)
Time Latitude Longitude Altitude Speed Heading
2026-05-05 10:58 36.81916 11.96862 632 ft 0 kts 71°
2026-05-05 11:14 36.81884 11.96900 632 ft 15 kts 167°
2026-05-05 11:14 36.81780 11.96984 635 ft 19 kts 182°
2026-05-05 11:14 36.81705 11.97042 646 ft 13 kts 112°
2026-05-05 11:14 36.81709 11.97197 651 ft 23 kts 80°
2026-05-05 11:15 36.81742 11.97391 658 ft 22 kts 77°
2026-05-05 11:15 36.81792 11.97538 663 ft 11 kts 67°
2026-05-05 11:15 36.81775 11.97564 663 ft 3 kts 205°
2026-05-05 11:15 36.81768 11.97519 663 ft 17 kts 261°
2026-05-05 11:16 36.81693 11.97126 649 ft 86 kts 256°
2026-05-05 11:16 36.81485 11.95979 674 ft 178 kts 253°
2026-05-05 11:16 36.81134 11.94327 1434 ft 204 kts 241°
2026-05-05 11:16 36.80179 11.93223 2830 ft 179 kts 197°
2026-05-05 11:17 36.78896 11.93151 3562 ft 200 kts 162°
2026-05-05 11:17 36.77601 11.94005 3814 ft 227 kts 149°
2026-05-05 11:17 36.76223 11.95049 4487 ft 234 kts 149°
2026-05-05 11:17 36.74797 11.96096 5148 ft 241 kts 153°
2026-05-05 11:18 36.73216 11.96767 5915 ft 241 kts 167°
2026-05-05 11:18 36.71560 11.97198 6634 ft 244 kts 169°
2026-05-05 11:18 36.69876 11.97590 7293 ft 249 kts 170°
2026-05-05 11:18 36.68120 11.97997 7860 ft 264 kts 171°
2026-05-05 11:19 36.66290 11.98430 8607 ft 270 kts 170°
2026-05-05 11:19 36.64443 11.98877 8990 ft 271 kts 171°
2026-05-05 11:19 36.62575 11.99336 9089 ft 275 kts 170°
2026-05-05 11:19 36.60677 11.99807 9113 ft 296 kts 170°
2026-05-05 11:20 36.58536 12.00340 9119 ft 331 kts 170°
2026-05-05 11:20 36.56160 12.00938 9116 ft 362 kts 169°
2026-05-05 11:20 36.53655 12.01572 9097 ft 368 kts 169°
2026-05-05 11:20 36.51134 12.02216 9089 ft 372 kts 169°
2026-05-05 11:21 36.48606 12.02864 9072 ft 370 kts 169°
2026-05-05 11:21 36.46083 12.03511 9081 ft 370 kts 169°
2026-05-05 11:21 36.43550 12.04159 9081 ft 371 kts 169°
2026-05-05 11:21 36.41017 12.04805 9083 ft 372 kts 169°
2026-05-05 11:22 36.38478 12.05453 9085 ft 372 kts 169°
2026-05-05 11:22 36.35938 12.06101 9084 ft 372 kts 169°
2026-05-05 11:22 36.33430 12.06739 9084 ft 372 kts 169°
2026-05-05 11:22 36.30886 12.07387 9084 ft 372 kts 169°
2026-05-05 11:23 36.28351 12.08033 9084 ft 371 kts 169°
2026-05-05 11:23 36.25815 12.08678 9088 ft 371 kts 169°
2026-05-05 11:23 36.23310 12.09314 9084 ft 371 kts 169°
2026-05-05 11:23 36.20771 12.09960 9085 ft 371 kts 169°
2026-05-05 11:24 36.18229 12.10605 9081 ft 370 kts 169°
2026-05-05 11:24 36.15704 12.11246 9083 ft 370 kts 169°
2026-05-05 11:24 36.13178 12.11886 9082 ft 370 kts 169°
2026-05-05 11:24 36.10658 12.12525 9088 ft 370 kts 169°
2026-05-05 11:25 36.08169 12.13155 9082 ft 370 kts 169°
2026-05-05 11:25 36.05643 12.13793 9080 ft 370 kts 169°
2026-05-05 11:25 36.03118 12.14431 9082 ft 370 kts 169°
2026-05-05 11:25 36.00594 12.15069 9082 ft 370 kts 169°
2026-05-05 11:26 35.98071 12.15706 9078 ft 370 kts 169°
2026-05-05 11:26 35.95546 12.16343 9077 ft 370 kts 169°
2026-05-05 11:26 35.93074 12.16968 9049 ft 353 kts 169°
2026-05-05 11:26 35.90704 12.17567 8589 ft 343 kts 169°
2026-05-05 11:27 35.88407 12.18146 8226 ft 332 kts 169°
2026-05-05 11:27 35.86173 12.18708 7859 ft 323 kts 169°
2026-05-05 11:27 35.83990 12.19257 7481 ft 315 kts 169°
2026-05-05 11:27 35.81885 12.19786 7122 ft 308 kts 169°
2026-05-05 11:28 35.79807 12.20307 6770 ft 302 kts 169°
2026-05-05 11:28 35.77760 12.20821 6401 ft 297 kts 168°
2026-05-05 11:28 35.75751 12.21325 6054 ft 291 kts 168°
2026-05-05 11:28 35.74446 12.21652 5881 ft 286 kts 168°
2026-05-05 11:29 35.72523 12.22133 5630 ft 278 kts 168°
2026-05-05 11:29 35.70648 12.22603 5368 ft 272 kts 167°
2026-05-05 11:29 35.68229 12.23209 5058 ft 264 kts 167°
2026-05-05 11:29 35.66441 12.23657 4815 ft 259 kts 167°
2026-05-05 11:30 35.65250 12.23955 4644 ft 257 kts 167°
2026-05-05 11:30 35.63513 12.24390 4392 ft 253 kts 167°
2026-05-05 11:30 35.61799 12.24819 4142 ft 250 kts 167°
2026-05-05 11:30 35.60128 12.25237 3906 ft 246 kts 167°
2026-05-05 11:31 35.58469 12.25652 3709 ft 241 kts 167°
2026-05-05 11:31 35.56846 12.26057 3506 ft 236 kts 167°
2026-05-05 11:31 35.55256 12.26455 3306 ft 231 kts 167°
2026-05-05 11:31 35.53698 12.26844 3104 ft 227 kts 167°
2026-05-05 11:32 35.52162 12.27227 2905 ft 223 kts 167°
2026-05-05 11:32 35.50654 12.27603 2696 ft 218 kts 167°
2026-05-05 11:32 35.49213 12.27961 2512 ft 204 kts 167°
2026-05-05 11:32 35.47873 12.28294 2317 ft 189 kts 167°
2026-05-05 11:33 35.46668 12.28748 2100 ft 176 kts 145°
2026-05-05 11:33 35.45911 12.29809 2016 ft 161 kts 117°
2026-05-05 11:33 35.45670 12.31129 1983 ft 160 kts 90°
2026-05-05 11:33 35.45844 12.32504 2015 ft 165 kts 85°
2026-05-05 11:34 35.46017 12.33866 1997 ft 163 kts 85°
2026-05-05 11:34 35.46199 12.35255 1996 ft 167 kts 84°
2026-05-05 11:34 35.46387 12.36666 1994 ft 167 kts 85°
2026-05-05 11:34 35.46579 12.38082 1997 ft 168 kts 85°
2026-05-05 11:35 35.46770 12.39498 2000 ft 166 kts 85°
2026-05-05 11:35 35.46956 12.40877 1990 ft 162 kts 85°
2026-05-05 11:35 35.47142 12.42252 1981 ft 166 kts 85°
2026-05-05 11:35 35.47329 12.43647 1992 ft 166 kts 83°
2026-05-05 11:36 35.47518 12.45032 1986 ft 165 kts 84°
2026-05-05 11:36 35.47706 12.46404 1858 ft 157 kts 85°
2026-05-05 11:36 35.47878 12.47647 1729 ft 139 kts 86°
2026-05-05 11:36 35.48033 12.48787 1640 ft 137 kts 87°
2026-05-05 11:37 35.48190 12.49951 1555 ft 139 kts 85°
2026-05-05 11:37 35.48349 12.51119 1447 ft 136 kts 86°
2026-05-05 11:37 35.48501 12.52230 1310 ft 128 kts 87°
2026-05-05 11:37 35.48643 12.53274 1140 ft 124 kts 86°
2026-05-05 11:38 35.48786 12.54340 1052 ft 127 kts 86°
2026-05-05 11:38 35.48933 12.55423 958 ft 130 kts 86°
2026-05-05 11:38 35.49088 12.56537 824 ft 132 kts 85°
2026-05-05 11:38 35.49253 12.57627 612 ft 129 kts 85°
2026-05-05 11:39 35.49403 12.58682 395 ft 122 kts 85°
2026-05-05 11:39 35.49527 12.59724 246 ft 126 kts 87°
2026-05-05 11:39 35.49662 12.60795 71 ft 125 kts 85°
2026-05-05 11:39 35.49805 12.61849 64 ft 120 kts 86°
2026-05-05 11:40 35.49886 12.62540 67 ft 27 kts 81°
2026-05-05 11:40 35.49911 12.62758 64 ft 21 kts 83°
2026-05-05 11:40 35.49930 12.62912 66 ft 9 kts 60°
2026-05-05 11:40 35.49968 12.62902 68 ft 6 kts 275°
2026-05-05 11:41 35.49944 12.62843 64 ft 10 kts 242°
2026-05-05 11:41 35.49925 12.62757 63 ft 11 kts 260°
2026-05-05 11:41 35.49913 12.62649 64 ft 17 kts 260°
2026-05-05 11:41 35.49886 12.62463 58 ft 25 kts 260°
2026-05-05 11:42 35.49858 12.62266 57 ft 23 kts 259°
2026-05-05 11:42 35.49829 12.62079 61 ft 17 kts 261°
2026-05-05 11:42 35.49866 12.61962 55 ft 13 kts 337°
2026-05-05 11:42 35.49953 12.61949 51 ft 13 kts 27°
2026-05-05 11:43 35.49989 12.62006 55 ft 8 kts
2026-05-05 11:43 35.50020 12.62041 57 ft 5 kts 107°
2026-05-05 11:43 35.50006 12.62039 54 ft 2 kts 218°
2026-05-05 11:43 35.50004 12.62035 55 ft 0 kts 230°